{"data":{"norad_id":67854,"epoch":"2026-05-25T03:29:03.363648Z","epoch_age_seconds":63345,"freshness":"FRESH","line1":"1 67854U 26034E   26145.14517782  .00012598  00000+0  43669-3 0  9993","line2":"2 67854  53.1572 208.9520 0001178  87.4051 272.7084 15.30204374 15738","mean_motion":15.30204374,"eccentricity":0.0001178,"inclination_deg":53.1572,"raan_deg":208.952,"arg_perigee_deg":87.4051,"mean_anomaly_deg":272.7084,"bstar":0.00043669,"rev_number":1573,"period_min":94.105076711799,"perigee_km":474.39468613954,"apogee_km":476.00933281017,"semimajor_km":6853.3390094749,"source":"CELESTRAK","updated_at":"2026-05-25T13:38:21.725437Z"}}